Alturas, CA

4:12 PM PDT on May 22, 2017 (GMT -0700)
Alturas Municipal

Weather History for KAAT - February, 2014

Change the Weather History Date:

Tuesday, February 4, 2014

  Actual Average Record
Temperature  
Mean Temperature 21 °F 32 °F  
Max Temperature 38 °F 44 °F 65 °F (1995)
Min Temperature 4 °F 20 °F -23 °F (1985)
Degree Days  
Heating Degree Days 44 33  
Month to date heating degree days 159 132  
Since 1 July heating degree days 4144 4130  
Cooling Degree Days 0 0  
Month to date cooling degree days 0 0  
Year to date cooling degree days 0 0  
Moisture  
Dew Point 9 °F    
Average Humidity 62    
Maximum Humidity 91    
Minimum Humidity 32    
Precipitation  
Precipitation 0.00 in 0.04 in 0.37 in (1996)
Month to date precipitation T 0.17  
Year to date precipitation 0.12 1.82  
Sea Level Pressure  
Sea Level Pressure 30.10 in    
Wind  
Wind Speed 2 mph (SE)    
Max Wind Speed 9 mph    
Max Gust Speed 12 mph    
Visibility 8 miles    
Events      
T = Trace of Precipitation, MM = Missing Value Source: NWS Daily Summary

Daily Weather History Graph

Daily Weather History Graph

Search for Another Location

Airport or City:

Trip Planner

Search our weather history database for the weather conditions in past years. The results will help you decide how hot, cold, wet, or windy it might be!

Date:

Astronomy

Feb. 04, 2014 Rise Set
Actual Time 7:10 AM PST 5:22 PM PST
Civil Twilight 6:41 AM PST 5:51 PM PST
Nautical Twilight 6:08 AM PST 6:24 PM PST
Astronomical Twilight 5:36 AM PST 6:56 PM PST
Moon 9:47 AM PST (2/4) 11:26 PM PST (2/4)
Length of Visible Light 11h 09m
Length of Day
10h 11m
Waxing Crescent, 30% of the Moon is Illuminated
Feb 4
Waxing Crescent
Feb 6
First Quarter
Feb 14
Full
Feb 22
Last Quarter
Mar 1
New

Hourly Weather History & Observations

Time (PST) Temp. Windchill Dew Point Humidity Pressure Visibility Wind Dir Wind Speed Gust Speed Precip Events Conditions
12:55 AM 18.0 °F 12.7 °F 10.9 °F 74% 30.05 in 7.0 mi ESE 3.5 mph - N/A   Overcast
1:55 AM 16.0 °F 10.4 °F 10.0 °F 77% 30.07 in 10.0 mi SE 3.5 mph - N/A   Overcast
2:55 AM 14.0 °F 5.1 °F 9.0 °F 80% 30.07 in 10.0 mi South 5.8 mph - N/A   Overcast
3:55 AM 10.9 °F 4.7 °F 7.0 °F 84% 30.10 in 10.0 mi East 3.5 mph - N/A   Clear
4:55 AM 10.9 °F 4.7 °F 7.0 °F 84% 30.12 in 10.0 mi SE 3.5 mph - N/A   Clear
5:55 AM 7.0 °F - 5.0 °F 92% 30.14 in 8.0 mi Calm Calm - N/A   Clear
6:55 AM 6.1 °F - 1.9 °F 83% 30.16 in 7.0 mi Calm Calm - N/A   Clear
7:37 AM 8.1 °F - 3.9 °F 83% 30.03 in 10.0 mi Calm Calm - N/A   Mostly Cloudy
7:55 AM 8.1 °F - 3.9 °F 83% 30.18 in 4.0 mi Calm Calm - N/A   Mostly Cloudy
8:12 AM 12.9 °F - 8.1 °F 81% 30.04 in 2.5 mi Calm Calm - N/A   Haze
8:33 AM 16.0 °F - 10.0 °F 77% 30.05 in 3.0 mi Calm Calm - N/A   Haze
8:55 AM 18.0 °F - 10.9 °F 74% 30.17 in 8.0 mi Calm Calm - N/A   Clear
9:55 AM 25.0 °F - 15.1 °F 66% 30.17 in 10.0 mi Calm Calm - N/A   Clear
10:55 AM 30.9 °F - 15.1 °F 52% 30.15 in 10.0 mi Calm Calm - N/A   Partly Cloudy
11:55 AM 33.1 °F 26.9 °F 14.0 °F 46% 30.12 in 10.0 mi Variable 6.9 mph - N/A   Scattered Clouds
12:55 PM 32.0 °F 26.4 °F 12.0 °F 44% 30.09 in 10.0 mi Variable 5.8 mph - N/A   Clear
1:55 PM 35.1 °F - 12.0 °F 39% 30.07 in 10.0 mi Calm Calm - N/A   Clear
2:55 PM 37.0 °F - 10.9 °F 34% 30.06 in 10.0 mi Calm Calm - N/A   Clear
3:55 PM 37.0 °F - 10.0 °F 33% 30.06 in 10.0 mi Calm Calm - N/A   Clear
4:55 PM 35.1 °F 32.2 °F 9.0 °F 34% 30.06 in 10.0 mi South 3.5 mph - N/A   Clear
5:55 PM 28.9 °F - 9.0 °F 43% 30.11 in 10.0 mi Calm Calm - N/A   Clear
6:55 PM 28.0 °F - 9.0 °F 45% 30.13 in 6.0 mi Calm Calm - N/A   Haze
7:55 PM 23.0 °F - 8.1 °F 53% 30.16 in 10.0 mi Calm Calm - N/A   Clear
8:55 PM 21.9 °F - 9.0 °F 58% 30.14 in 8.0 mi Calm Calm - N/A   Clear
9:55 PM 19.9 °F - 9.0 °F 62% 30.14 in 10.0 mi Calm Calm - N/A   Partly Cloudy
10:55 PM 19.0 °F - 10.9 °F 71% 30.13 in 10.0 mi Calm Calm - N/A   Clear
11:43 PM 19.9 °F - 10.0 °F 65% 30.05 in 2.5 mi Calm Calm - N/A   Haze
11:52 PM 15.8 °F - 8.6 °F 73% 30.05 in 4.0 mi Calm Calm - N/A   Haze
11:55 PM 17.1 °F - 9.0 °F 71% 30.14 in 3.0 mi Calm Calm - N/A   Haze